Placerville, CA

2:02 AM PDT on July 24, 2017 (GMT -0700)
Placerville

Weather History for KPVF - May, 2014

Change the Weather History Date:

Wednesday, May 14, 2014

  Actual Average Record
Temperature  
Mean Temperature 73 °F -  
Max Temperature 84 °F 76 °F 84 °F (2014)
Min Temperature 62 °F 46 °F 41 °F (2011)
Cooling Degree Days 8    
Growing Degree Days 23 (Base 50)    
Moisture  
Dew Point 36 °F    
Average Humidity 25    
Maximum Humidity 40    
Minimum Humidity 18    
Precipitation  
Precipitation 0.00 in - - ()
Sea Level Pressure  
Sea Level Pressure 30.21 in    
Wind  
Wind Speed 8 mph (East)    
Max Wind Speed 13 mph    
Max Gust Speed -    
Visibility 10 miles    
Events      
Averages and records for this station are not official NWS values.
T = Trace of Precipitation, MM = Missing Value Source: NWS Daily Summary

Daily Weather History Graph

Daily Weather History Graph

Search for Another Location

Airport or City:

Trip Planner

Search our weather history database for the weather conditions in past years. The results will help you decide how hot, cold, wet, or windy it might be!

Date:

Astronomy

May. 14, 2014 Rise Set
Actual Time 5:51 AM PDT 8:07 PM PDT
Civil Twilight 5:21 AM PDT 8:37 PM PDT
Nautical Twilight 4:45 AM PDT 9:14 PM PDT
Astronomical Twilight 4:05 AM PDT 9:54 PM PDT
Moon 8:18 PM PDT (5/14) 5:53 AM PDT (5/14)
Length of Visible Light 15h 15m
Length of Day
14h 15m
Full, 100% of the Moon is Illuminated
May 14
Full
May 14
Full
May 21
Last Quarter
May 28
New
Jun 5
First Quarter

Hourly Weather History & Observations

Time (PDT) Temp. Dew Point Humidity Pressure Visibility Wind Dir Wind Speed Gust Speed Precip Events Conditions
12:15 AM 68.0 °F 37.4 °F 33% 30.24 in 10.0 mi ENE 10.4 mph - N/A   Mostly Cloudy
12:35 AM 68.0 °F 37.4 °F 33% 30.24 in 10.0 mi ENE 11.5 mph - N/A   Mostly Cloudy
12:55 AM 66.2 °F 37.4 °F 35% 30.23 in 10.0 mi ENE 11.5 mph - N/A   Overcast
1:15 AM 68.0 °F 37.4 °F 33% 30.23 in 10.0 mi ENE 11.5 mph - N/A   Mostly Cloudy
1:35 AM 64.4 °F 37.4 °F 37% 30.23 in 10.0 mi East 11.5 mph - N/A   Mostly Cloudy
1:55 AM 66.2 °F 37.4 °F 35% 30.23 in 10.0 mi East 8.1 mph - N/A   Mostly Cloudy
2:15 AM 66.2 °F 35.6 °F 32% 30.23 in 10.0 mi East 8.1 mph - N/A   Mostly Cloudy
2:35 AM 66.2 °F 32.0 °F 28% 30.22 in 10.0 mi ENE 9.2 mph - N/A   Scattered Clouds
2:55 AM 66.2 °F 28.4 °F 24% 30.22 in 10.0 mi East 11.5 mph - N/A   Partly Cloudy
3:15 AM 66.2 °F 26.6 °F 23% 30.22 in 10.0 mi East 12.7 mph - N/A   Partly Cloudy
3:35 AM 66.2 °F 26.6 °F 23% 30.22 in 10.0 mi East 9.2 mph - N/A   Partly Cloudy
4:15 AM 66.2 °F 28.4 °F 24% 30.21 in 10.0 mi East 8.1 mph - N/A   Partly Cloudy
4:35 AM 66.2 °F 28.4 °F 24% 30.21 in 10.0 mi East 8.1 mph - N/A   Mostly Cloudy
4:55 AM 66.2 °F 26.6 °F 23% 30.21 in 10.0 mi East 8.1 mph - N/A   Partly Cloudy
5:15 AM 64.4 °F 24.8 °F 22% 30.21 in 10.0 mi East 8.1 mph - N/A   Clear
5:35 AM 62.6 °F 24.8 °F 24% 30.21 in 10.0 mi East 9.2 mph - N/A   Clear
5:55 AM 66.2 °F 23.0 °F 19% 30.21 in 10.0 mi East 8.1 mph - N/A   Clear
6:15 AM 62.6 °F 24.8 °F 24% 30.22 in 10.0 mi East 8.1 mph - N/A   Clear
6:35 AM 62.6 °F 24.8 °F 24% 30.22 in 10.0 mi East 8.1 mph - N/A   Clear
6:55 AM 64.4 °F 23.0 °F 21% 30.23 in 10.0 mi East 8.1 mph - N/A   Clear
7:15 AM 64.4 °F 26.6 °F 24% 30.23 in 10.0 mi East 8.1 mph - N/A   Clear
7:35 AM 66.2 °F 28.4 °F 24% 30.23 in 10.0 mi East 8.1 mph - N/A   Clear
7:55 AM 68.0 °F 30.2 °F 24% 30.23 in 10.0 mi East 6.9 mph - N/A   Clear
8:35 AM 71.6 °F 32.0 °F 23% 30.23 in 10.0 mi ESE 6.9 mph - N/A   Clear
8:55 AM 73.4 °F 35.6 °F 25% 30.23 in 10.0 mi ESE 5.8 mph - N/A   Clear
9:15 AM 75.2 °F 37.4 °F 25% 30.23 in 10.0 mi SE 4.6 mph - N/A   Clear
9:55 AM 77.0 °F 41.0 °F 28% 30.23 in 10.0 mi South 4.6 mph - N/A   Clear
10:15 AM 77.0 °F 37.4 °F 24% 30.23 in 10.0 mi SSW 4.6 mph - N/A   Clear
10:35 AM 78.8 °F 35.6 °F 21% 30.23 in 10.0 mi SSW 3.5 mph - N/A   Clear
10:55 AM 80.6 °F 37.4 °F 21% 30.23 in 10.0 mi South 4.6 mph - N/A   Clear
11:15 AM 80.6 °F 37.4 °F 21% 30.23 in 10.0 mi SW 6.9 mph - N/A   Clear
11:35 AM 82.4 °F 37.4 °F 20% 30.23 in 10.0 mi WSW 4.6 mph - N/A   Clear
11:55 AM 82.4 °F 39.2 °F 21% 30.23 in 10.0 mi West 5.8 mph - N/A   Clear
12:15 PM 82.4 °F 37.4 °F 20% 30.23 in 10.0 mi WSW 8.1 mph - N/A   Clear
12:35 PM 82.4 °F 39.2 °F 21% 30.22 in 10.0 mi West 6.9 mph - N/A   Clear
1:15 PM 82.4 °F 39.2 °F 21% 30.22 in 10.0 mi SW 8.1 mph - N/A   Clear
1:35 PM 84.2 °F 39.2 °F 20% 30.21 in 10.0 mi West 6.9 mph - N/A   Clear
1:55 PM 84.2 °F 39.2 °F 20% 30.21 in 10.0 mi West 10.4 mph - N/A   Clear
2:15 PM 84.2 °F 39.2 °F 20% 30.21 in 10.0 mi SW 6.9 mph - N/A   Clear
2:55 PM 84.2 °F 35.6 °F 18% 30.21 in 10.0 mi West 10.4 mph - N/A   Clear
3:15 PM 84.2 °F 37.4 °F 19% 30.21 in 10.0 mi WSW 5.8 mph - N/A   Clear
3:35 PM 84.2 °F 35.6 °F 18% 30.20 in 10.0 mi West 9.2 mph - N/A   Clear
3:55 PM 82.4 °F 37.4 °F 20% 30.20 in 10.0 mi WNW 4.6 mph - N/A   Clear
4:15 PM 84.2 °F 39.2 °F 20% 30.20 in 10.0 mi WSW 5.8 mph - N/A   Clear
4:35 PM 82.4 °F 35.6 °F 19% 30.20 in 10.0 mi West 6.9 mph - N/A   Clear
4:55 PM 82.4 °F 37.4 °F 20% 30.20 in 10.0 mi WNW 5.8 mph - N/A   Clear
5:15 PM 82.4 °F 37.4 °F 20% 30.19 in 10.0 mi NW 3.5 mph - N/A   Clear
5:35 PM 82.4 °F 39.2 °F 21% 30.18 in 10.0 mi WNW 3.5 mph - N/A   Clear
5:55 PM 82.4 °F 39.2 °F 21% 30.18 in 10.0 mi NW 3.5 mph - N/A   Clear
6:15 PM 82.4 °F 41.0 °F 23% 30.18 in 10.0 mi West 3.5 mph - N/A   Clear
6:35 PM 80.6 °F 41.0 °F 24% 30.17 in 10.0 mi West 3.5 mph - N/A   Clear
6:55 PM 80.6 °F 41.0 °F 24% 30.17 in 10.0 mi Calm Calm - N/A   Clear
7:15 PM 80.6 °F 41.0 °F 24% 30.17 in 10.0 mi NW 3.5 mph - N/A   Clear
7:35 PM 78.8 °F 41.0 °F 26% 30.18 in 10.0 mi Calm Calm - N/A   Clear
7:55 PM 77.0 °F 41.0 °F 28% 30.18 in 10.0 mi Calm Calm - N/A   Clear
8:15 PM 77.0 °F 41.0 °F 28% 30.18 in 10.0 mi Calm Calm - N/A   Clear
8:35 PM 77.0 °F 41.0 °F 28% 30.19 in 10.0 mi Calm Calm - N/A   Clear
8:55 PM 77.0 °F 39.2 °F 26% 30.19 in 10.0 mi Calm Calm - N/A   Clear
9:15 PM 77.0 °F 39.2 °F 26% 30.19 in 10.0 mi Calm Calm - N/A   Clear
9:35 PM 77.0 °F 39.2 °F 26% 30.19 in 10.0 mi NNE 3.5 mph - N/A   Clear
9:55 PM 73.4 °F 41.0 °F 31% 30.19 in 10.0 mi East 5.8 mph - N/A   Clear
10:15 PM 73.4 °F 41.0 °F 31% 30.19 in 10.0 mi East 6.9 mph - N/A   Clear
10:35 PM 71.6 °F 41.0 °F 33% 30.19 in 10.0 mi ENE 8.1 mph - N/A   Clear
10:55 PM 71.6 °F 41.0 °F 33% 30.19 in 10.0 mi East 9.2 mph - N/A   Clear
11:15 PM 71.6 °F 41.0 °F 33% 30.19 in 10.0 mi ENE 10.4 mph - N/A   Clear
11:35 PM 71.6 °F 41.0 °F 33% 30.19 in 10.0 mi East 8.1 mph - N/A   Clear
11:55 PM 66.2 °F 41.0 °F 40% 30.20 in 10.0 mi ESE 5.8 mph - N/A   Clear